INTELSAT 37E (IS-37E)

Last updated on Tue Dec 16 2025 00:02:51 GMT+0000 (Coordinated Universal Time)

1 42950U 17059A 25349.26887229 -.00000120 00000+0 00000+0 0 9991 2 42950 0.0186 326.7729 0003086 288.6194 267.5824 1.00271542 30221
UTC large
Height (km)
Speed (km/s)
/
Latitude / Longitude
Inclination (degrees)
Orbital Period (minutes)
Azimuth
Elevation
Range (km)
Doppler Factor

Next 0 passes for location: London (51.5072 / 0.1276)

Sorry there are no passes over London.